Weather History for KPQI - January, 2014

Change the Weather History Date:

Sunday, January 19, 2014

  Actual Average Record
Temperature  
Mean Temperature 19 °F -  
Max Temperature 26 °F 20 °F 51 °F (1929)
Min Temperature 12 °F 1 °F -34 °F (1997)
Degree Days  
Heating Degree Days 46    
Moisture  
Dew Point 18 °F    
Average Humidity 86    
Maximum Humidity 93    
Minimum Humidity 74    
Precipitation  
Precipitation 0.03 in - - ()
Sea Level Pressure  
Sea Level Pressure 29.43 in    
Wind  
Wind Speed 1 mph (South)    
Max Wind Speed 9 mph    
Max Gust Speed -    
Visibility 7 miles    
Events      
Averages and records for this station are not official NWS values.
T = Trace of Precipitation, MM = Missing Value Source: NWS Daily Summary

Daily Weather History Graph

Daily Weather History Graph

Search for Another Location

Airport or City:

Trip Planner

Search our weather history database for the weather conditions in past years. The results will help you decide how hot, cold, wet, or windy it might be!

Date:

Astronomy

Jan. 19, 2014 Rise Set
Actual Time 7:09 AM EST 4:16 PM EST
Civil Twilight 6:36 AM EST 4:50 PM EST
Nautical Twilight 5:58 AM EST 5:27 PM EST
Astronomical Twilight 5:22 AM EST 6:03 PM EST
Moon 8:07 PM EST (1/19) 8:23 AM EST (1/19)
Length of Visible Light 10h 14m
Length of Day
9h 07m
Waning Gibbous, 89% of the Moon is Illuminated
Jan 19
Waning Gibbous
Jan 24
Last Quarter
Jan 30
New
Feb 6
First Quarter
Feb 14
Full

Hourly Weather History & Observations

Time (EST) Temp. Windchill Dew Point Humidity Pressure Visibility Wind Dir Wind Speed Gust Speed Precip Events Conditions
12:15 AM 19.4 °F - 15.8 °F 86% 29.60 in 10.0 mi Calm Calm - N/A   Clear
12:35 AM 19.4 °F - 15.8 °F 86% 29.60 in 10.0 mi Calm Calm - N/A   Partly Cloudy
12:55 AM 17.6 °F - 15.8 °F 93% 29.60 in 10.0 mi Calm Calm - N/A   Clear
1:15 AM 19.4 °F - 15.8 °F 86% 29.60 in 10.0 mi Calm Calm - N/A   Scattered Clouds
1:35 AM 19.4 °F - 15.8 °F 86% 29.61 in 9.0 mi Calm Calm - N/A   Partly Cloudy
1:55 AM 15.8 °F - 12.2 °F 86% 29.62 in 10.0 mi Calm Calm - N/A   Partly Cloudy
2:15 AM 17.6 °F - 15.8 °F 93% 29.62 in 10.0 mi Calm Calm - N/A   Mostly Cloudy
2:35 AM 17.6 °F - 14.0 °F 86% 29.62 in 8.0 mi Calm Calm - N/A   Mostly Cloudy
2:55 AM 17.6 °F - 12.2 °F 79% 29.61 in 9.0 mi Calm Calm - N/A   Mostly Cloudy
3:15 AM 15.8 °F - 12.2 °F 86% 29.61 in 10.0 mi Calm Calm - N/A   Overcast
3:35 AM 12.2 °F 6.1 °F 8.6 °F 85% 29.62 in 10.0 mi South 3.5 mph - N/A   Overcast
3:55 AM 14.0 °F - 10.4 °F 86% 29.62 in 10.0 mi Calm Calm - N/A   Mostly Cloudy
4:15 AM 14.0 °F - 10.4 °F 86% 29.61 in 0.2 mi Calm Calm - N/A   Mostly Cloudy
4:35 AM 14.0 °F - 12.2 °F 93% 29.60 in 1.2 mi Calm Calm - N/A   Scattered Clouds
4:55 AM 12.2 °F - 6.8 °F 79% 29.62 in 9.0 mi Calm Calm - N/A   Clear
5:15 AM 12.2 °F - 10.4 °F 92% 29.62 in 8.0 mi Calm Calm - N/A   Scattered Clouds
5:35 AM 12.2 °F - 6.8 °F 79% 29.61 in 8.0 mi Calm Calm - N/A   Partly Cloudy
5:55 AM 12.2 °F - 10.4 °F 92% 29.61 in 10.0 mi Calm Calm - N/A   Partly Cloudy
6:15 AM 12.2 °F - 8.6 °F 85% 29.60 in 10.0 mi Calm Calm - N/A   Mostly Cloudy
6:35 AM 12.2 °F - 8.6 °F 85% 29.60 in 10.0 mi Calm Calm - N/A   Scattered Clouds
6:55 AM 12.2 °F - 6.8 °F 79% 29.59 in 10.0 mi Calm Calm - N/A   Mostly Cloudy
7:15 AM 12.2 °F - 10.4 °F 92% 29.59 in 10.0 mi Calm Calm - N/A   Mostly Cloudy
7:35 AM 12.2 °F - 10.4 °F 92% 29.59 in 10.0 mi Calm Calm - N/A   Mostly Cloudy
7:55 AM 15.8 °F - 10.4 °F 79% 29.59 in 10.0 mi Calm Calm - N/A   Overcast
8:15 AM 17.6 °F - 14.0 °F 86% 29.59 in 10.0 mi Calm Calm - N/A   Overcast
8:35 AM 17.6 °F - 14.0 °F 86% 29.58 in 10.0 mi Calm Calm - N/A   Overcast
8:55 AM 19.4 °F - 15.8 °F 86% 29.57 in 10.0 mi Calm Calm - N/A   Overcast
9:15 AM 19.4 °F - 15.8 °F 86% 29.56 in 10.0 mi Calm Calm - N/A   Overcast
9:35 AM 21.2 °F - 17.6 °F 86% 29.56 in 10.0 mi Calm Calm - N/A   Overcast
9:55 AM 21.2 °F - 19.4 °F 93% 29.56 in 10.0 mi Calm Calm - N/A   Overcast
10:15 AM 23.0 °F - 19.4 °F 86% 29.55 in 6.0 mi Calm Calm - N/A   Overcast
10:35 AM 23.0 °F - 19.4 °F 86% 29.53 in 10.0 mi Calm Calm - N/A   Overcast
10:55 AM 24.8 °F - 21.2 °F 86% 29.51 in 1.5 mi Calm Calm - N/A   Overcast
11:15 AM 24.8 °F - 21.2 °F 86% 29.50 in 1.2 mi Calm Calm - N/A   Overcast
11:35 AM 24.8 °F - 21.2 °F 86% 29.48 in 0.8 mi Calm Calm - N/A   Overcast
11:55 AM 24.8 °F - 21.2 °F 86% 29.46 in 0.5 mi Calm Calm - N/A   Overcast
12:15 PM 24.8 °F - 21.2 °F 86% 29.44 in 0.8 mi Calm Calm - 0.01 in   Overcast
12:35 PM 26.6 °F - 23.0 °F 86% 29.43 in 1.0 mi Calm Calm - 0.01 in   Overcast
12:55 PM 26.6 °F 22.6 °F 24.8 °F 93% 29.41 in 0.8 mi SE 3.5 mph - 0.01 in   Overcast
1:15 PM 26.6 °F 20.0 °F 24.8 °F 93% 29.39 in 0.8 mi SE 5.8 mph - N/A   Overcast
1:35 PM 26.6 °F 21.2 °F 24.8 °F 93% 29.38 in 1.2 mi SE 4.6 mph - N/A   Overcast
1:55 PM 26.6 °F 21.2 °F 24.8 °F 93% 29.36 in 1.5 mi SE 4.6 mph - 0.01 in   Overcast
2:15 PM 26.6 °F 20.0 °F 24.8 °F 93% 29.35 in 1.5 mi SE 5.8 mph - N/A   Overcast
2:35 PM 26.6 °F 21.2 °F 24.8 °F 93% 29.33 in 1.8 mi SE 4.6 mph - N/A   Overcast
2:55 PM 26.6 °F 20.0 °F 24.8 °F 93% 29.32 in 2.5 mi SE 5.8 mph - N/A   Overcast
3:15 PM 26.6 °F 21.2 °F 24.8 °F 93% 29.31 in 2.0 mi SE 4.6 mph - N/A   Overcast
3:35 PM 26.6 °F 22.6 °F 24.8 °F 93% 29.30 in 3.0 mi SE 3.5 mph - N/A   Overcast
3:55 PM 26.6 °F 22.6 °F 23.0 °F 86% 29.29 in 2.5 mi SE 3.5 mph - N/A   Overcast
4:15 PM 26.6 °F - 24.8 °F 93% 29.28 in 2.0 mi Calm Calm - N/A   Overcast
4:35 PM 26.6 °F - 24.8 °F 93% 29.27 in 1.8 mi Calm Calm - N/A   Overcast
4:55 PM 26.6 °F 22.6 °F 24.8 °F 93% 29.26 in 1.5 mi SE 3.5 mph - N/A   Overcast
5:15 PM 26.6 °F 22.6 °F 23.0 °F 86% 29.26 in 3.0 mi SSE 3.5 mph - N/A   Overcast
5:35 PM 26.6 °F 22.6 °F 23.0 °F 86% 29.25 in 4.0 mi SSE 3.5 mph - N/A   Overcast
5:55 PM 26.6 °F 21.2 °F 23.0 °F 86% 29.24 in 5.0 mi South 4.6 mph - N/A   Overcast
6:15 PM 26.6 °F 22.6 °F 23.0 °F 86% 29.24 in 5.0 mi SSE 3.5 mph - N/A   Overcast
6:35 PM 26.6 °F 22.6 °F 23.0 °F 86% 29.24 in 3.0 mi South 3.5 mph - N/A   Overcast
6:55 PM 26.6 °F 20.0 °F 23.0 °F 86% 29.23 in 3.0 mi South 5.8 mph - N/A   Overcast
7:15 PM 26.6 °F - 23.0 °F 86% 29.23 in 9.0 mi Calm Calm - N/A   Overcast
7:35 PM 24.8 °F - 23.0 °F 93% 29.22 in 10.0 mi Calm Calm - 0.01 in   Overcast
7:55 PM 26.6 °F 20.0 °F 23.0 °F 86% 29.23 in 1.8 mi WSW 5.8 mph - 0.01 in   Overcast
8:15 PM 26.6 °F 17.5 °F 21.2 °F 80% 29.24 in 5.0 mi West 9.2 mph - N/A   Overcast
8:35 PM 26.6 °F 18.2 °F 21.2 °F 80% 29.24 in 10.0 mi West 8.1 mph - N/A   Overcast
8:55 PM 26.6 °F 17.5 °F 21.2 °F 80% 29.24 in 7.0 mi WSW 9.2 mph - N/A   Mostly Cloudy
9:15 PM 26.6 °F 18.2 °F 19.4 °F 74% 29.25 in 10.0 mi WSW 8.1 mph - N/A   Overcast
9:35 PM 26.6 °F 17.5 °F 19.4 °F 74% 29.25 in 10.0 mi WSW 9.2 mph - N/A   Overcast
9:55 PM 24.8 °F 16.9 °F 17.6 °F 74% 29.25 in 10.0 mi SW 6.9 mph - N/A   Overcast
10:15 PM 24.8 °F 19.1 °F 17.6 °F 74% 29.26 in 10.0 mi SSW 4.6 mph - N/A   Mostly Cloudy
10:35 PM 23.0 °F 15.8 °F 17.6 °F 80% 29.26 in 10.0 mi SW 5.8 mph - N/A   Clear
10:55 PM 23.0 °F 17.0 °F 15.8 °F 74% 29.25 in 10.0 mi South 4.6 mph - N/A   Clear
11:15 PM 21.2 °F 12.6 °F 14.0 °F 74% 29.25 in 10.0 mi SW 6.9 mph - N/A   Clear
11:35 PM 21.2 °F 10.9 °F 14.0 °F 74% 29.25 in 10.0 mi South 9.2 mph - N/A   Clear
11:55 PM 19.4 °F 9.5 °F 15.8 °F 86% 29.25 in 10.0 mi SSW 8.1 mph - N/A   Partly Cloudy